Location: Unspecified
(0.0000°N, 0.0000°E)
Time: 12:14:13
(UTC+00:00)

Tiros 1 - Visible Passes

Search period start: 30 October 2014 00:00
Search period end: 09 November 2014 00:00
Orbit: 633 x 667 km, 48.4° (Epoch: 29 October)

Date Brightness Start Highest point End Pass type
(mag) Time Alt. Az. Time Alt. Az. Time Alt. Az.
30 Oct 9.4 03:54:35 14° NNE 03:56:43 18° NE 03:59:58 10° E visible
31 Oct 7.5 04:21:18 28° NNW 04:23:41 61° NE 04:28:23 10° SE visible
01 Nov 9.9 03:10:12 14° ENE 03:10:12 14° ENE 03:11:36 10° E visible
01 Nov 7.8 04:47:59 20° WNW 04:50:39 37° SW 04:55:04 10° SSE visible
02 Nov 8.3 03:36:49 42° ESE 03:36:49 42° ESE 03:40:11 10° SE visible
02 Nov 9.2 05:16:06 10° WSW 05:17:43 12° SW 05:19:21 10° SSW visible
03 Nov 8.0 04:03:19 37° SSW 04:03:19 37° SSW 04:06:57 10° SSE visible
04 Nov 9.2 04:29:44 13° SW 04:29:44 13° SW 04:31:34 10° SSW visible
05 Nov 9.8 03:18:18 13° SSE 03:18:18 13° SSE 03:18:50 10° SSE visible
